[[{"header":{"parameterUnit":"m.s-1","parameterCategory":1,"la1":30.2992,"la2":30.254,"lo1":-89.0895,"lo2":-89.0443,"dy":0.0025,"dx":0.0025,"nx":19,"ny":19,"refTime":"2026-03-20T21:00:00:Z","depth":0,"parameterNumber":2,"parameterNumberName":"U-component_of_WINDS"},"data":[0,0,0,4.1225,4.1231,4.1486,4.1487,4.1814,4.1816,0,0,0,0,0,0,0,0,0,0,0,4.115,4.1153,4.1225,4.1231,4.1486,4.1487,4.1813,4.1816,0,0,0,0,0,0,0,0,0,0,0,4.1149,4.1152,4.1155,4.1232,4.1486,4.1487,4.1812,4.162,0,0,0,0,0,0,0,0,0,0,4.1372,4.1304,4.1151,4.1155,4.1234,4.1486,4.1488,4.161,4.1632,4.1698,0,4.1757,0,4.1792,4.1838,4.1839,0,0,0,4.1231,4.1286,4.1354,4.1155,4.1236,4.1485,4.1371,4.1622,4.1646,4.1726,4.1762,4.1774,4.1797,4.184,4.1842,4.2222,4.2224,0,0,4.1217,4.1197,4.1337,4.1369,4.133,4.1363,4.1379,4.1637,4.1675,4.1763,4.1782,4.1803,4.1843,4.1845,4.222,4.2222,0,0,0,4.1177,4.1187,4.1249,4.1356,4.1402,4.137,4.1389,4.1663,4.1685,4.1785,4.1807,4.1844,4.1848,4.2218,4.2221,4.2286,0,0,0,4.1168,4.1164,4.1243,4.1233,4.1397,4.1536,4.1409,4.1667,4.1697,4.1805,4.1845,4.1852,4.2216,4.222,4.228,4.232,0,0,0,4.1134,4.1159,4.1196,4.1231,4.134,4.1532,4.1569,4.1674,4.171,4.184,4.1853,4.2215,4.2219,4.2275,4.2312,4.2411,0,0,0,4.1091,4.1254,4.1197,4.1388,4.1338,4.1572,4.1567,4.1743,4.1862,4.1846,4.2217,4.2221,4.2273,4.2306,4.2405,4.2488,4.2522,0,0,4.1286,4.1277,4.139,4.1347,4.1585,4.1534,4.1782,4.1912,4.1944,4.2127,4.2137,4.2282,4.2311,4.241,4.2724,4.275,0,0,0,4.1445,4.1526,4.1593,4.1705,4.1806,4.1895,4.1989,4.2036,4.2192,4.2034,4.2348,4.2365,4.2424,4.2464,4.2487,4.2536,4.224,4.2239,4.2239,4.1691,4.172,4.1908,4.1968,4.2076,4.2169,4.2258,4.2337,4.2339,4.2412,4.2466,4.2653,4.2699,4.2716,4.2768,4.2515,4.2516,4.2516,4.2516,4.1975,4.2092,4.2086,4.2266,4.2296,4.2448,4.2542,4.2537,4.2681,4.2616,4.2669,4.2591,4.2745,4.2791,4.2521,4.252,4.252,4.2519,4.2519,4.2136,4.2197,4.2251,4.2412,4.2533,4.2588,4.2725,4.2749,4.2773,4.2826,4.2882,4.2881,4.2879,4.2851,4.2852,4.2853,4.2853,4.2854,4.2854,4.228,4.2339,4.2451,4.257,4.2642,4.2741,4.2833,4.2905,4.299,4.2997,4.2997,4.2988,4.2755,4.2694,4.2864,4.2862,4.2861,4.286,4.2859,4.2552,4.2493,4.2667,4.2739,4.2878,4.2994,4.3022,4.3166,4.3229,4.3295,4.3274,4.31,4.3093,4.3075,4.3024,4.327,4.327,4.327,4.327,4.2685,4.2683,4.2863,4.2976,4.309,4.3132,4.3324,4.3397,4.3463,4.3503,4.3471,4.3407,4.3388,4.3392,4.3368,4.332,4.3636,4.3636,4.3637,4.2851,4.2861,4.302,4.3083,4.3192,4.3285,4.3465,4.3594,4.3658,4.3652,4.3534,4.3518,4.3415,4.338,4.337,4.3331,4.3245,0,0]},{"header":{"parameterUnit":"m.s-1","parameterCategory":1,"la1":30.2992,"la2":30.254,"lo1":-89.0895,"lo2":-89.0443,"dy":0.0025,"dx":0.0025,"nx":19,"ny":19,"refTime":"2026-03-20T21:00:00:Z","depth":0,"parameterNumber":3,"parameterNumberName":"V-component_of_WINDS"},"data":[0,0,0,2.1454,2.1456,2.1571,2.1572,2.1717,2.1718,0,0,0,0,0,0,0,0,0,0,0,2.1421,2.1422,2.1454,2.1457,2.1571,2.1572,2.1717,2.1718,0,0,0,0,0,0,0,0,0,0,0,2.142,2.1422,2.1423,2.1457,2.1571,2.1572,2.1716,2.163,0,0,0,0,0,0,0,0,0,0,2.1519,2.149,2.1421,2.1423,2.1458,2.1571,2.1572,2.1626,2.1635,2.1665,0,2.1693,0,2.1708,2.1728,2.1728,0,0,0,2.1456,2.1482,2.1512,2.1423,2.1459,2.1571,2.1519,2.1631,2.1642,2.1677,2.1695,2.17,2.171,2.1729,2.173,2.1905,2.1906,0,0,2.1449,2.1442,2.1504,2.1519,2.1503,2.1516,2.1523,2.1638,2.1655,2.1695,2.1703,2.1713,2.173,2.1731,2.1904,2.1905,0,0,0,2.1432,2.1437,2.1465,2.1513,2.1534,2.1519,2.1527,2.165,2.166,2.1705,2.1714,2.1731,2.1732,2.1903,2.1905,2.194,0,0,0,2.1428,2.1427,2.1462,2.1458,2.1532,2.1594,2.1537,2.1652,2.1665,2.1714,2.1731,2.1734,2.1902,2.1904,2.1937,2.1958,0,0,0,2.1413,2.1425,2.1442,2.1458,2.1507,2.1592,2.1608,2.1655,2.1671,2.1729,2.1734,2.1902,2.1904,2.1934,2.1954,2.2001,0,0,0,2.1395,2.1473,2.1443,2.1533,2.1506,2.1614,2.1608,2.1688,2.1742,2.1731,2.1902,2.1904,2.1934,2.1951,2.1999,2.204,2.2057,0,0,2.1489,2.1484,2.1537,2.1514,2.1625,2.1597,2.1712,2.1768,2.178,2.1862,2.1867,2.1938,2.1953,2.2001,2.2154,2.2167,0,0,0,2.1564,2.1603,2.1634,2.1685,2.1729,2.1769,2.1808,2.1828,2.1898,2.1821,2.1968,2.1978,2.2006,2.2026,2.2037,2.2061,2.1914,2.1913,2.1913,2.1687,2.1698,2.1787,2.1811,2.186,2.1899,2.1939,2.1973,2.197,2.2004,2.2029,2.212,2.2144,2.2152,2.2177,2.2052,2.2052,2.2052,2.2052,2.1825,2.1881,2.1874,2.1957,2.1968,2.2037,2.2077,2.2072,2.2137,2.2103,2.2128,2.209,2.2167,2.2189,2.2055,2.2054,2.2054,2.2054,2.2053,2.1907,2.1935,2.1958,2.2032,2.2087,2.2108,2.2171,2.2178,2.2185,2.221,2.2236,2.2235,2.2235,2.2221,2.2222,2.2222,2.2222,2.2223,2.2223,2.1982,2.2007,2.206,2.2113,2.2145,2.2189,2.2226,2.2258,2.2295,2.2295,2.2295,2.2288,2.2172,2.2143,2.2228,2.2227,2.2226,2.2226,2.2226,2.2118,2.2088,2.217,2.2202,2.2263,2.2316,2.2324,2.2388,2.2415,2.2445,2.2431,2.2345,2.234,2.2331,2.2307,2.243,2.243,2.243,2.243,2.2186,2.2184,2.2269,2.232,2.2371,2.2385,2.2475,2.2504,2.2529,2.2546,2.2529,2.2497,2.2488,2.2489,2.2476,2.2454,2.2611,2.2611,2.2611,2.227,2.2273,2.2349,2.2374,2.2422,2.2462,2.2546,2.2604,2.2626,2.2619,2.2559,2.2552,2.25,2.2483,2.2476,2.2456,2.2415,0,0]}]]